Regional Weather Roundup
Issued by NWS

Home | Current Version | Previous Version | Graphics & Text | Print | Product List | Glossary On
Versions: 1 2 3 4 5 6 7 8 9 10 11 12 13 14 15 16 17 18 19 20 21 22 23 24 25 26 27 28 29 30 31 32 33 34 35 36 37 38 39 40 41 42 43 44 45 46 47 48 49 50
000
ASUS45 KSLC 151910
RWRUT

UTAH REGIONAL WEATHER ROUNDUP
NATIONAL WEATHER SERVICE SALT LAKE CITY UT
1200 PM MST MON JAN 15 2018

UTZ001>011-023>025-152000-

NORTHERN UTAH

CITY           SKY/WX    TMP DP  RH WIND       PRES   REMARKS
BRIGHAM CITY   SUNNY     39  29  69 CALM      30.34F
HILL AFB       SUNNY     41  28  58 E6        30.31F
LOGAN          SUNNY     36  27  69 W5        30.35F WCI  32
OGDEN          SUNNY     43  26  51 N5        30.32F
SALT LAKE CITY MOSUNNY   44  32  62 NW5       30.32F
TOOELE VALLEY  SUNNY     36  32  87 NW3       30.34F
WENDOVER       SUNNY     38  27  64 E3        30.34F
HEBER CITY       N/A     36  27  69 CALM      30.30F
WEST JORDAN    SUNNY     41  30  66 CALM      30.33F

$$

UTZ011>015-024>027-152000-

CENTRAL/NORTHEAST UTAH

CITY           SKY/WX    TMP DP  RH WIND       PRES   REMARKS
PROVO AIRPORT  MOSUNNY   35  29  78 VRB5      30.33F WCI  31
MOAB/CANYONLAN SUNNY     41  30  65 NW5       30.27F
DELTA          SUNNY     39  32  75 NW5       30.31F
PRICE          SUNNY     40  27  59 VRB3      30.27F
ROOSEVELT      SUNNY     36  23  60 CALM      30.39F
VERNAL         MOSUNNY   38  25  59 SE6       30.36F WCI  33

$$

UTZ013>016-019>022-027-152000-

SOUTHERN UTAH

CITY           SKY/WX    TMP DP  RH WIND       PRES   REMARKS
BRYCE CANYON   MOSUNNY   43  27  53 NW5       30.27F
CEDAR CITY     PTSUNNY   39  31  72 CALM      30.26F
MILFORD        SUNNY     41  31  67 N6        30.28F
ST GEORGE      CLEAR     49  37  63 SW3       30.24F
HANKSVILLE     SUNNY     41  27  56 CALM      30.31F
BLANDING         N/A     44  26  49 CALM      30.30F

$$

REGIONAL REPORTS     COLORADO/ARIZONA

CITY           SKY/WX    TMP DP  RH WIND       PRES   REMARKS
CRAIG, CO      CLOUDY    23  18  81 CALM      30.37F
GRAND JUNCTION SUNNY     42  25  50 SE6       30.28F
RIFLE, CO      SUNNY     38  22  52 CALM      30.30F
MONTROSE, CO   SUNNY     39  20  46 NW6       30.28F WCI  35
CORTEZ, CO     SUNNY     44  26  49 W12       30.22F
COLORADO CITY    N/A     50  32  50 CALM      30.26F
PAGE, AZ       MOSUNNY   45  31  58 VRB3      30.24F
GRAND CANYON   CLOUDY    53  26  35 VRB3      30.24F
KINGMAN, AZ    SUNNY     58  32  37 N9        30.19F
FLAGSTAFF, AZ  PTSUNNY   54   6  14 W8        30.24F

$$

REGIONAL REPORTS    NEVADA/IDAHO/WYOMING

CITY           SKY/WX    TMP DP  RH WIND       PRES   REMARKS
LAS VEGAS, NV  MOSUNNY   62  34  35 CALM      30.18F
ELY, NY        MOSUNNY   39  25  57 CALM      30.30F
ELKO, NV       MOSUNNY   42  27  55 CALM      30.29F
POCATELLO, ID  MOSUNNY   34  29  82 NE7       30.37F WCI  28
BURLEY, ID     SUNNY     40  30  67 NE13G24   30.32F WCI  32
FORT BRIDGER,    N/A     36  24  60 E10       30.37F WCI  29
EVANSTON, WY   SUNNY     34  26  72 NE9       30.32F WCI  27
ROCK SPRINGS,  CLOUDY    24  16  71 E16       30.40F WCI  11

$$



USA.gov is the U.S. government's official web portal to all federal, state and local government web resources and services.